x

West Sea Otter (46204) Wave Buoy

10:00am - Fri 28th Jul 2017 All times are PDT. -7 hours from GMT.

  • Sig Wave height 2.0ft
  • Peak Period 7s
  • Wind
    2mph, 4mph gusts
  • Sea Temp 60°f
  • Air Temp 59°f
  • Sea Pressure 1020.4mb
  • West Sea Otter
  • West Sea Otter

More Historic Weather Station data

Upgrade to MSW Pro to gain access to the past 30 days of data for over 8000 Wavebouys and Weather Stations around the globe.

Join Pro

Comparision Forecast

View Surf forecast
   
Fri 07/28 10:00am 2ft 7s 2 4 mph 1020.4mb 60f 59f
9:00am 2.5ft 7s 4 4 mph 1020.5mb 60f 58f
8:00am 2.5ft 7s 7 7 mph 1020.4mb 59f 58f
7:00am 2.5ft 7s 7 9 mph 1020.5mb 59f 58f
6:00am 2.5ft 7s 7 9 mph 1020.4mb 60f 58f
5:00am 2.5ft 7s 7 9 mph 1020.4mb 60f 58f
4:00am 3ft 7s 7 9 mph 1020.8mb 60f 58f
3:00am 3ft 7s 4 7 mph 1021.2mb 60f 58f
2:00am 3ft 8s 7 7 mph 1021.2mb 60f 58f
1:00am 3ft 8s 4 7 mph 1021.6mb 60f 58f
12:00am 3ft 8s 4 7 mph 1021.8mb 60f 58f
Thu 07/27 11:00pm 3ft 7s 9 9 mph 1021.9mb 60f 58f
10:00pm 3ft 7s 7 9 mph 1022mb 60f 58f
9:00pm 3ft 7s 9 9 mph 1022mb 60f 59f
8:00pm 3.5ft 7s 9 11 mph 1022.1mb 60f 59f
7:00pm 3.5ft 8s 9 9 mph 1022.2mb 61f 59f
6:00pm 3.5ft 8s 9 9 mph 1022.3mb 61f 60f
5:00pm 3.5ft 8s 9 9 mph 1022.3mb 61f 59f
4:00pm 4ft 8s 7 9 mph 1022.6mb 61f 60f
3:00pm 4.5ft 8s 7 9 mph 1022.7mb 60f 60f
2:00pm 4.5ft 8s 7 9 mph 1022.6mb 60f 59f
1:00pm 4.5ft 8s 7 7 mph 1022.4mb 60f 59f
12:00pm 4.5ft 8s 4 7 mph 1022.2mb 60f 59f
11:00am 4ft 8s 4 4 mph 1022mb 60f 58f
10:00am 4ft 9s 4 4 mph 1021.4mb 60f 58f
9:00am 4ft 9s 4 4 mph 1021.1mb 59f 58f
8:00am 4ft 8s 4 4 mph 1020.8mb 59f 57f
7:00am 4.5ft 9s 2 2 mph 1020.6mb 59f 56f
6:00am 4ft 9s 7 9 mph 1020.3mb 59f 56f
5:00am 4ft 8s 4 4 mph 1020mb 59f 57f
4:00am 4.5ft 8s 4 7 mph 1019.8mb 59f 56f
3:00am 4.5ft 8s 4 7 mph 1019.9mb 59f 57f
2:00am 4.5ft 7s 7 7 mph 1020mb 59f 58f
1:00am 5ft 7s 9 11 mph 1020.1mb 59f 58f
12:00am 5ft 8s 7 9 mph 1020.2mb 59f 58f
Wed 07/26 11:00pm 4.5ft 7s 7 7 mph 1020.4mb 60f 59f
10:00pm 4.5ft 8s 4 7 mph 1020.6mb 60f 59f
9:00pm 4ft 8s 4 7 mph 1020.3mb 60f 58f
8:00pm 3.5ft 8s 7 9 mph 1020.3mb 60f 59f
7:00pm 3.5ft 7s 7 9 mph 1020.4mb 60f 59f
6:00pm 3.5ft 7s 7 9 mph 1020.6mb 60f 59f
5:00pm 3.5ft 7s 11 13 mph 1020.6mb 60f 58f
4:00pm 4ft 7s 9 11 mph 1020.8mb 60f 59f
2:00pm 4.5ft 7s 13 16 mph 1020.2mb 59f 59f
1:00pm 4ft 7s 7 9 mph 1020mb 59f 58f
12:00pm 3.5ft 7s 4 9 mph 1019.8mb 59f 56f
11:00am 3.5ft 7s 11 13 mph 1019.3mb 59f 57f
10:00am 3ft 7s 11 13 mph 1019mb 59f 58f
9:00am 3ft 7s 9 11 mph 1018.6mb 59f 58f
8:00am 3ft 8s 9 9 mph 1018.3mb 58f 58f
7:00am 3ft 7s 9 11 mph 1017.9mb 58f 58f
6:00am 3ft 7s 11 13 mph 1017.7mb 59f 58f
5:00am 3ft 7s 11 16 mph 1017.3mb 59f 58f
4:00am 3ft 6s 9 11 mph 1017.3mb 59f 58f
3:00am 3ft 5s 11 13 mph 1017.4mb 59f 58f
2:00am 3ft 5s 11 13 mph 1017.5mb 58f 57f
1:00am 3ft 6s 11 13 mph 1017.9mb 58f 57f
12:00am 2.5ft 6s 11 11 mph 1018.1mb 59f 58f
Tue 07/25 11:00pm 2.5ft 6s 9 9 mph 1018.4mb 59f 58f
10:00pm 2.5ft 6s 7 9 mph 1018.6mb 59f 58f
9:00pm 2.5ft 6s 7 9 mph 1018.8mb 59f 58f
8:00pm 2ft 6s 9 11 mph 1018.8mb 59f 57f
7:00pm 2.5ft 6s 9 11 mph 1019mb 60f 57f
6:00pm 2.5ft 6s 9 11 mph 1019.3mb 60f 58f
5:00pm 2.5ft 6s 9 11 mph 1019.6mb 60f 58f
4:00pm 2.5ft 6s 7 7 mph 1020mb 61f 58f
3:00pm 2.5ft 5s 9 11 mph 1020.3mb 60f 58f
2:00pm 2.5ft 5s 7 9 mph 1020.4mb 60f 58f
1:00pm 2.5ft 5s 4 7 mph 1020.6mb 60f 59f
12:00pm 2ft 4s 2 4 mph 1020.6mb 60f 59f
11:00am 1.6ft 7s 4 9 mph 1020.6mb 59f 58f
10:00am 1.6ft 7s  -  2 mph 1020.6mb 58f 59f
9:00am 1.6ft 14s 2 2 mph 1020.7mb 58f 57f
8:00am 1.6ft 15s 7 9 mph 1020.6mb 58f 57f
7:00am 1.6ft 8s 4 4 mph 1020.3mb 58f 57f
6:00am 1.6ft 8s 4 7 mph 1020.1mb 58f 56f
5:00am 2ft 7s 9 11 mph 1019.6mb 58f 57f
4:00am 2.5ft 5s 9 11 mph 1019.6mb 58f 58f
3:00am 2.5ft 4s 11 13 mph 1019.5mb 58f 57f
2:00am 2.5ft 4s 11 13 mph 1019.7mb 58f 58f
1:00am 2.5ft 5s 9 9 mph 1019.9mb 58f 58f
12:00am 2.5ft 6s 9 11 mph 1019.9mb 58f 58f
Mon 07/24 11:00pm 2.5ft 6s 11 13 mph 1020mb 58f 58f
10:00pm 2.5ft 8s 11 13 mph 1020mb 58f 58f
9:00pm 2.5ft 8s 11 13 mph 1020.1mb 58f 58f
8:00pm 2.5ft 7s 11 13 mph 1020.1mb 58f 58f
7:00pm 3ft 8s 13 16 mph 1020.1mb 58f 58f